USA 32

operational
NORAD ID: 19460 Int'l Des: 1988-078 Owner: NRO Country: US
LEOCIRCULARPOLAR

About USA 32

Description loading...

Live Position

Loading 3D Globe...

Upcoming Passes

Altitude History

Altitude vs Time

uPlot chart will show altitude changes over time

Two-Line Element Set

1 19460U 88078A 26063.38493793 .00000278 00000-0 91717-4 0 9990
2 19460 84.9916 173.9846 0004974 88.2809 271.8955 14.34412431 94160
Epoch: Mar 4, 2026 • Age: 22 hours

Current Status

Altitude 780.1 km
Velocity 7.47 km/s
Sub-Earth Point 36.39°N, 137.02°W
Launch Date Sep 5, 1988
Age 37.4 years
Type military

Technical Details

Classification Payload
Mass 1450.00 kg
Dry Mass 1200.00 kg
Total Mass 1450.00 kg
Length 0.50 m
Diameter 1.00 m
Span 10.00 m
Shape Cyl + Ant
Manufacturer LMSC
Bus Type NRO-T2
Phase Status In Orbit
Owner/State NRO/US

Large Constellations

Loading constellations...